SAS8V BGSF-CYYZ

Flight info

Callsign SAS8V
Flight time N/A
Altitude 40000
Route BAVKO1A BAVKO Y67 MA Y27 ASCOX DCT SAVRY N912B IRBIM/N0483F400 N918B MT J545 YVO Q820 KAPUX DCT IRKIM BOXUM7
Aircraft A359/H-SDE2E3GHIJ3J4J5LM1ORWXY/LB1D1

Departure

Time 2026-04-23 20:59
Airport Kangerlussuaq International Airport (BGSF)

Arrival

Time N/A
Airport Toronto Pearson International Airport (CYYZ)
Time Latitude Longitude Altitude Speed Heading
2026-04-23 20:43 67.00826 -50.71464 179 ft 0 kts 142°
2026-04-23 20:54 67.00782 -50.71486 178 ft 12 kts 222°
2026-04-23 20:54 67.00730 -50.71688 176 ft 16 kts 245°
2026-04-23 20:54 67.00748 -50.71860 174 ft 6 kts 334°
2026-04-23 20:54 67.00831 -50.71966 174 ft 21 kts 332°
2026-04-23 20:55 67.00950 -50.72132 174 ft 18 kts 329°
2026-04-23 20:55 67.00957 -50.72404 171 ft 18 kts 244°
2026-04-23 20:55 67.00885 -50.72751 170 ft 32 kts 242°
2026-04-23 20:55 67.00772 -50.73279 160 ft 36 kts 240°
2026-04-23 20:56 67.00651 -50.73859 154 ft 32 kts 242°
2026-04-23 20:56 67.00585 -50.74263 149 ft 24 kts 258°
2026-04-23 20:56 67.00546 -50.74500 149 ft 13 kts 242°
2026-04-23 20:56 67.00514 -50.74535 149 ft 2 kts 144°
2026-04-23 20:57 67.00518 -50.74461 149 ft 7 kts 59°
2026-04-23 20:57 67.00540 -50.74389 149 ft 0 kts 65°
2026-04-23 20:59 67.00679 -50.73724 155 ft 91 kts 61°
2026-04-23 20:59 67.00945 -50.72474 171 ft 149 kts 61°
2026-04-23 20:59 67.01716 -50.68662 793 ft 211 kts 67°
2026-04-23 21:00 67.02173 -50.64803 1311 ft 237 kts 73°
2026-04-23 21:00 67.02540 -50.62066 1752 ft 243 kts 62°
2026-04-23 21:00 67.04091 -50.57814 2665 ft 254 kts 43°
2026-04-23 21:00 67.05122 -50.54079 3318 ft 263 kts 69°
2026-04-23 21:01 67.05361 -50.49397 3976 ft 272 kts 97°
2026-04-23 21:01 67.05017 -50.46229 4413 ft 277 kts 115°
2026-04-23 21:01 67.03427 -50.41042 5285 ft 285 kts 136°
2026-04-23 21:01 67.01811 -50.38020 5938 ft 291 kts 154°
2026-04-23 21:02 67.00507 -50.36909 6361 ft 295 kts 171°
2026-04-23 21:02 66.98470 -50.37363 7013 ft 299 kts 200°
2026-04-23 21:02 66.96752 -50.40345 7650 ft 303 kts 226°
2026-04-23 21:02 66.95339 -50.44379 8253 ft 307 kts 230°
2026-04-23 21:03 66.93948 -50.48558 8889 ft 311 kts 230°
2026-04-23 21:03 66.92439 -50.52447 9534 ft 315 kts 220°
2026-04-23 21:03 66.90541 -50.55416 10211 ft 319 kts 207°
2026-04-23 21:03 66.88476 -50.57538 10828 ft 322 kts 202°
2026-04-23 21:04 66.86360 -50.59248 11375 ft 326 kts 199°
2026-04-23 21:04 66.84154 -50.60784 11864 ft 331 kts 198°
2026-04-23 21:04 66.81909 -50.62247 12359 ft 335 kts 198°
2026-04-23 21:04 66.79635 -50.63715 12872 ft 339 kts 198°
2026-04-23 21:05 66.77339 -50.65222 13389 ft 342 kts 198°
2026-04-23 21:05 66.75029 -50.66770 13900 ft 344 kts 199°
2026-04-23 21:05 66.72708 -50.68352 14431 ft 347 kts 199°
2026-04-23 21:05 66.70373 -50.69958 14897 ft 349 kts 199°
2026-04-23 21:06 66.68034 -50.71573 15366 ft 350 kts 198°
2026-04-23 21:06 66.65683 -50.73196 15856 ft 351 kts 198°
2026-04-23 21:06 66.63321 -50.74822 16351 ft 352 kts 198°
2026-04-23 21:06 66.60955 -50.76445 16858 ft 353 kts 198°
2026-04-23 21:07 66.58572 -50.78076 17298 ft 357 kts 198°
2026-04-23 21:07 66.56161 -50.79724 17658 ft 362 kts 198°
2026-04-23 21:07 66.53717 -50.81390 18029 ft 366 kts 198°
2026-04-23 21:07 66.51248 -50.83069 18400 ft 370 kts 198°
2026-04-23 21:08 66.48749 -50.84763 18760 ft 373 kts 198°
2026-04-23 21:08 66.46233 -50.86467 19093 ft 376 kts 197°
2026-04-23 21:08 66.43697 -50.88178 19418 ft 379 kts 198°
2026-04-23 21:08 66.41146 -50.89898 19741 ft 381 kts 198°
2026-04-23 21:09 66.38576 -50.91626 20084 ft 384 kts 198°
2026-04-23 21:09 66.35986 -50.93364 20418 ft 386 kts 198°
2026-04-23 21:09 66.33387 -50.95104 20766 ft 388 kts 198°
2026-04-23 21:09 66.30773 -50.96851 21113 ft 390 kts 198°
2026-04-23 21:10 66.28146 -50.98603 21449 ft 391 kts 198°
2026-04-23 21:10 66.25509 -51.00359 21806 ft 393 kts 198°
2026-04-23 21:10 66.22863 -51.02118 22172 ft 394 kts 198°
2026-04-23 21:10 66.20209 -51.03878 22532 ft 396 kts 198°
2026-04-23 21:11 66.17547 -51.05639 22901 ft 397 kts 198°
2026-04-23 21:11 66.14910 -51.07378 23277 ft 397 kts 198°
2026-04-23 21:11 66.12242 -51.09133 23634 ft 397 kts 198°
2026-04-23 21:11 66.09534 -51.10912 24016 ft 398 kts 198°
2026-04-23 21:12 66.06894 -51.12643 24339 ft 398 kts 198°
2026-04-23 21:12 66.04220 -51.14393 24665 ft 398 kts 198°
2026-04-23 21:12 66.01541 -51.16143 24962 ft 399 kts 198°
2026-04-23 21:12 65.98850 -51.17898 25229 ft 400 kts 197°
2026-04-23 21:13 65.96155 -51.19651 25521 ft 402 kts 197°
2026-04-23 21:13 65.93450 -51.21405 25809 ft 403 kts 198°
2026-04-23 21:13 65.90729 -51.23165 26074 ft 405 kts 198°
2026-04-23 21:13 65.88000 -51.24929 26361 ft 407 kts 197°
2026-04-23 21:14 65.85255 -51.26697 26663 ft 409 kts 197°
2026-04-23 21:14 65.82498 -51.28469 26957 ft 411 kts 197°
2026-04-23 21:14 65.79721 -51.30249 27260 ft 414 kts 197°
2026-04-23 21:14 65.76931 -51.32034 27571 ft 416 kts 197°
2026-04-23 21:15 65.74116 -51.33832 27883 ft 419 kts 197°
2026-04-23 21:15 65.71288 -51.35634 28193 ft 422 kts 197°
2026-04-23 21:15 65.68446 -51.37441 28507 ft 424 kts 197°
2026-04-23 21:15 65.65578 -51.39260 28828 ft 427 kts 197°
2026-04-23 21:16 65.62693 -51.41085 29114 ft 431 kts 197°
2026-04-23 21:16 65.59773 -51.42929 29300 ft 436 kts 197°
2026-04-23 21:16 65.56815 -51.44793 29469 ft 442 kts 197°
2026-04-23 21:16 65.53818 -51.46677 29581 ft 449 kts 197°
2026-04-23 21:17 65.50770 -51.48589 29688 ft 456 kts 197°
2026-04-23 21:17 65.47682 -51.50520 29789 ft 462 kts 197°
2026-04-23 21:17 65.44549 -51.52472 29896 ft 467 kts 197°
2026-04-23 21:17 65.41382 -51.54440 30005 ft 473 kts 197°
2026-04-23 21:18 65.38187 -51.56421 30116 ft 475 kts 197°
2026-04-23 21:18 65.35025 -51.58375 30233 ft 476 kts 197°
2026-04-23 21:18 65.28623 -51.62321 30445 ft 475 kts 196°
2026-04-23 21:19 65.25419 -51.64287 30564 ft 475 kts 196°
2026-04-23 21:19 65.22217 -51.66247 30637 ft 475 kts 196°
2026-04-23 21:19 65.15810 -51.70157 30813 ft 476 kts 196°
2026-04-23 21:20 65.12590 -51.72115 30920 ft 478 kts 196°
2026-04-23 21:20 65.09366 -51.74072 31004 ft 479 kts 196°
2026-04-23 21:20 65.02908 -51.77978 31198 ft 479 kts 196°
2026-04-23 21:21 64.99680 -51.79923 31303 ft 478 kts 196°
2026-04-23 21:21 64.96455 -51.81862 31396 ft 478 kts 195°
2026-04-23 21:21 64.90001 -51.85726 31597 ft 478 kts 195°
2026-04-23 21:22 64.83552 -51.89565 31783 ft 478 kts 195°
2026-04-23 21:22 64.80326 -51.91478 31892 ft 478 kts 195°
2026-04-23 21:22 64.77103 -51.93385 31993 ft 478 kts 195°
2026-04-23 21:23 64.70663 -51.97183 32193 ft 477 kts 195°
2026-04-23 21:23 64.67446 -51.99074 32301 ft 477 kts 195°
2026-04-23 21:23 64.64229 -52.00960 32397 ft 477 kts 195°
2026-04-23 21:24 64.61012 -52.02856 32505 ft 477 kts 196°
2026-04-23 21:24 64.57868 -52.05275 32612 ft 476 kts 203°
2026-04-23 21:24 64.52007 -52.12363 32818 ft 475 kts 211°
2026-04-23 21:25 64.46363 -52.20309 33030 ft 475 kts 212°
2026-04-23 21:25 64.40747 -52.28332 33225 ft 474 kts 212°
2026-04-23 21:26 64.37931 -52.32311 33341 ft 474 kts 212°
2026-04-23 21:26 64.35114 -52.36261 33461 ft 474 kts 211°
2026-04-23 21:26 64.29499 -52.44062 33645 ft 476 kts 211°
2026-04-23 21:27 64.26652 -52.47994 33756 ft 478 kts 211°
2026-04-23 21:27 64.23798 -52.51926 33858 ft 478 kts 211°
2026-04-23 21:27 64.18094 -52.59756 34079 ft 478 kts 211°
2026-04-23 21:28 64.15236 -52.63666 34192 ft 478 kts 211°
2026-04-23 21:28 64.12382 -52.67562 34303 ft 477 kts 211°
2026-04-23 21:28 64.09533 -52.71444 34405 ft 477 kts 211°
2026-04-23 21:28 64.06682 -52.75320 34514 ft 477 kts 210°
2026-04-23 21:29 64.00975 -52.83045 34699 ft 477 kts 210°
2026-04-23 21:29 63.98124 -52.86890 34801 ft 476 kts 210°
2026-04-23 21:29 63.95273 -52.90728 34891 ft 476 kts 210°
2026-04-23 21:30 63.89572 -52.98373 35088 ft 475 kts 210°
2026-04-23 21:30 63.86718 -53.02187 35193 ft 475 kts 210°
2026-04-23 21:30 63.83874 -53.05978 35290 ft 475 kts 210°
2026-04-23 21:31 63.78172 -53.13553 35492 ft 476 kts 210°
2026-04-23 21:31 63.75315 -53.17335 35607 ft 476 kts 210°
2026-04-23 21:31 63.72454 -53.21112 35681 ft 476 kts 210°
2026-04-23 21:32 63.69595 -53.24880 35789 ft 476 kts 210°
2026-04-23 21:32 63.66733 -53.28641 35900 ft 476 kts 210°
2026-04-23 21:32 63.61015 -53.36129 36082 ft 475 kts 210°
2026-04-23 21:33 63.58156 -53.39858 36190 ft 475 kts 210°
2026-04-23 21:33 63.55300 -53.43576 36292 ft 475 kts 209°
2026-04-23 21:33 63.52443 -53.47288 36415 ft 474 kts 209°
2026-04-23 21:33 63.49585 -53.50992 36509 ft 475 kts 209°
2026-04-23 21:34 63.46721 -53.54694 36624 ft 475 kts 209°
2026-04-23 21:34 63.43858 -53.58387 36721 ft 475 kts 209°
2026-04-23 21:34 63.38126 -53.65753 36929 ft 475 kts 209°
2026-04-23 21:35 63.32441 -53.73026 37130 ft 474 kts 209°
2026-04-23 21:35 63.29577 -53.76677 37236 ft 474 kts 208°
2026-04-23 21:35 63.26717 -53.80313 37354 ft 474 kts 208°
2026-04-23 21:36 63.21000 -53.87560 37559 ft 473 kts 208°
2026-04-23 21:36 63.18142 -53.91170 37669 ft 473 kts 208°
2026-04-23 21:36 63.15285 -53.94771 37776 ft 472 kts 208°
2026-04-23 21:37 63.12433 -53.98357 37876 ft 472 kts 208°
2026-04-23 21:37 63.09537 -54.01990 37996 ft 472 kts 208°
2026-04-23 21:37 63.06687 -54.05557 38117 ft 471 kts 208°
2026-04-23 21:38 63.00981 -54.12674 38324 ft 471 kts 208°
2026-04-23 21:38 62.98166 -54.16173 38453 ft 470 kts 208°
2026-04-23 21:38 62.95318 -54.19705 38566 ft 471 kts 208°
2026-04-23 21:38 62.92466 -54.23234 38685 ft 471 kts 208°
2026-04-23 21:39 62.89614 -54.26756 38792 ft 471 kts 208°
2026-04-23 21:39 62.86760 -54.30271 38905 ft 470 kts 208°
2026-04-23 21:39 62.83907 -54.33779 39022 ft 470 kts 208°
2026-04-23 21:40 62.78207 -54.40763 39207 ft 470 kts 208°
2026-04-23 21:40 62.72499 -54.47725 39387 ft 470 kts 208°
2026-04-23 21:40 62.69642 -54.51197 39489 ft 470 kts 208°
2026-04-23 21:41 62.66781 -54.54668 39590 ft 471 kts 208°
2026-04-23 21:41 62.61051 -54.61594 39766 ft 472 kts 207°
2026-04-23 21:41 62.58177 -54.65055 39867 ft 473 kts 207°
2026-04-23 21:42 62.55295 -54.68518 39954 ft 475 kts 207°
2026-04-23 21:42 62.49499 -54.75462 40139 ft 478 kts 207°
2026-04-23 21:42 62.46584 -54.78944 40248 ft 478 kts 207°
2026-04-23 21:43 62.43673 -54.82413 40337 ft 478 kts 207°
2026-04-23 21:43 62.37835 -54.89347 40388 ft 480 kts 207°
2026-04-23 21:44 62.31981 -54.96267 40384 ft 480 kts 207°
2026-04-23 21:44 62.26119 -55.03164 40384 ft 480 kts 207°
2026-04-23 21:45 62.20264 -55.10024 40383 ft 478 kts 207°
2026-04-23 21:45 62.14521 -55.16725 40391 ft 465 kts 207°
2026-04-23 21:46 62.08852 -55.23309 40378 ft 464 kts 207°
2026-04-23 21:46 62.03219 -55.29819 40377 ft 464 kts 207°
2026-04-23 21:47 61.97542 -55.36355 40374 ft 464 kts 207°
2026-04-23 21:47 61.91862 -55.42868 40374 ft 464 kts 207°
2026-04-23 21:48 61.86181 -55.49356 40374 ft 464 kts 207°
2026-04-23 21:48 61.80482 -55.55834 40370 ft 465 kts 206°
2026-04-23 21:49 61.75747 -55.61195 40368 ft 465 kts 206°
2026-04-23 21:49 61.70044 -55.67629 40368 ft 465 kts 206°
2026-04-23 21:50 61.64340 -55.74038 40366 ft 465 kts 206°
2026-04-23 21:50 61.58629 -55.80426 40362 ft 465 kts 206°
2026-04-23 21:51 61.52912 -55.86793 40359 ft 465 kts 206°
2026-04-23 21:51 61.47196 -55.93133 40363 ft 465 kts 206°
2026-04-23 21:52 61.41472 -55.99456 40356 ft 465 kts 206°
2026-04-23 21:52 61.35747 -56.05754 40354 ft 465 kts 206°
2026-04-23 21:53 61.30015 -56.12034 40349 ft 466 kts 206°
2026-04-23 21:53 61.24276 -56.18295 40351 ft 466 kts 206°
2026-04-23 21:54 61.18529 -56.24538 40345 ft 466 kts 206°
2026-04-23 21:54 61.12779 -56.30759 40343 ft 466 kts 206°
2026-04-23 21:55 61.07070 -56.36911 40355 ft 466 kts 205°
2026-04-23 21:55 61.01289 -56.43112 40332 ft 472 kts 205°
2026-04-23 21:56 60.95413 -56.49388 40329 ft 479 kts 205°
2026-04-23 21:56 60.89444 -56.55738 40329 ft 487 kts 205°
2026-04-23 21:57 60.83388 -56.62156 40327 ft 494 kts 205°
2026-04-23 21:57 60.77242 -56.68641 40325 ft 499 kts 205°
2026-04-23 21:58 60.71051 -56.75147 40325 ft 501 kts 205°
2026-04-23 21:58 60.64857 -56.81627 40435 ft 500 kts 205°
2026-04-23 21:59 60.58664 -56.88077 40591 ft 500 kts 205°
2026-04-23 21:59 60.52472 -56.94495 40786 ft 500 kts 205°
2026-04-23 22:00 60.46277 -57.00889 40979 ft 499 kts 205°
2026-04-23 22:00 60.43176 -57.04079 41072 ft 499 kts 205°
2026-04-23 22:00 60.40083 -57.07255 41177 ft 499 kts 205°
2026-04-23 22:00 60.36984 -57.10430 41277 ft 499 kts 205°
2026-04-23 22:01 60.33889 -57.13594 41378 ft 499 kts 205°
2026-04-23 22:01 60.30790 -57.16756 41472 ft 498 kts 205°
2026-04-23 22:01 60.24604 -57.23044 41677 ft 498 kts 205°
2026-04-23 22:02 60.18414 -57.29311 41875 ft 498 kts 205°
2026-04-23 22:02 60.15322 -57.32433 41979 ft 497 kts 205°
2026-04-23 22:02 60.12233 -57.35544 42095 ft 497 kts 205°
2026-04-23 22:03 60.06060 -57.41740 42279 ft 496 kts 205°
2026-04-23 22:03 59.99861 -57.47937 42304 ft 499 kts 205°
2026-04-23 22:04 59.93621 -57.54149 42292 ft 502 kts 205°
2026-04-23 22:04 59.87355 -57.60361 42292 ft 504 kts 205°
2026-04-23 22:05 59.81074 -57.66562 42284 ft 504 kts 205°
2026-04-23 22:05 59.74791 -57.72739 42284 ft 504 kts 205°
2026-04-23 22:06 59.68551 -57.78847 42284 ft 504 kts 205°
2026-04-23 22:06 59.62263 -57.84976 42278 ft 504 kts 205°
2026-04-23 22:07 59.55964 -57.91090 42276 ft 504 kts 205°
2026-04-23 22:07 59.49666 -57.97179 42270 ft 504 kts 204°
2026-04-23 22:08 59.43638 -58.04215 42273 ft 507 kts 219°
2026-04-23 22:08 59.39094 -58.14772 42265 ft 510 kts 240°
2026-04-23 22:09 59.36677 -58.27813 42268 ft 512 kts 261°
2026-04-23 22:09 59.36664 -58.41700 42265 ft 512 kts 281°
2026-04-23 22:10 59.39024 -58.54777 42265 ft 509 kts 301°
2026-04-23 22:10 59.43442 -58.65466 42265 ft 504 kts 321°
2026-04-23 22:11 59.49385 -58.72530 42275 ft 499 kts 342°
2026-04-23 22:11 59.56139 -58.75148 42273 ft 495 kts
2026-04-23 22:12 59.62918 -58.73521 42279 ft 490 kts 19°
2026-04-23 22:12 59.69086 -58.68193 42273 ft 487 kts 30°
2026-04-23 22:13 59.75002 -58.61606 42284 ft 488 kts 32°
2026-04-23 22:13 59.80785 -58.54582 42285 ft 486 kts 39°
2026-04-23 22:14 59.85469 -58.45078 42290 ft 481 kts 57°
2026-04-23 22:14 59.88261 -58.33114 42287 ft 477 kts 76°
2026-04-23 22:15 59.88966 -58.20044 42293 ft 477 kts 94°
2026-04-23 22:15 59.87609 -58.07165 42297 ft 478 kts 110°
2026-04-23 22:16 59.84341 -57.95680 42290 ft 480 kts 128°
2026-04-23 22:16 59.79337 -57.86906 42286 ft 484 kts 147°
2026-04-23 22:17 59.73085 -57.81862 42288 ft 490 kts 166°
2026-04-23 22:17 59.66269 -57.81124 42284 ft 496 kts 185°
2026-04-23 22:18 59.59625 -57.84907 42276 ft 502 kts 205°
2026-04-23 22:18 59.53506 -57.91610 42275 ft 505 kts 210°
2026-04-23 22:19 59.47519 -57.98874 42269 ft 506 kts 211°
2026-04-23 22:19 59.42031 -58.07559 42269 ft 509 kts 226°
2026-04-23 22:20 59.38078 -58.19053 42271 ft 511 kts 246°
2026-04-23 22:20 59.36927 -58.25643 42271 ft 512 kts 257°
2026-04-23 22:20 59.36395 -58.32532 42265 ft 512 kts 268°
2026-04-23 22:21 59.37205 -58.46327 42268 ft 511 kts 288°
2026-04-23 22:21 59.40326 -58.58721 42269 ft 508 kts 308°
2026-04-23 22:22 59.45331 -58.68323 42268 ft 503 kts 328°
2026-04-23 22:22 59.48364 -58.71701 42275 ft 500 kts 339°
2026-04-23 22:22 59.51642 -58.73921 42277 ft 498 kts 349°
2026-04-23 22:23 59.58482 -58.75088 42275 ft 493 kts
2026-04-23 22:23 59.65057 -58.72046 42282 ft 488 kts 25°
2026-04-23 22:24 59.71106 -58.65992 42280 ft 487 kts 31°
2026-04-23 22:24 59.76999 -58.59319 42287 ft 488 kts 32°
2026-04-23 22:25 59.82532 -58.51631 42293 ft 484 kts 45°
2026-04-23 22:25 59.86645 -58.41191 42288 ft 479 kts 64°
2026-04-23 22:26 59.88742 -58.28704 42287 ft 477 kts 82°
2026-04-23 22:26 59.88733 -58.15562 42296 ft 477 kts 100°
2026-04-23 22:27 59.86704 -58.03028 42292 ft 478 kts 116°
2026-04-23 22:27 59.82812 -57.92321 42291 ft 481 kts 135°
2026-04-23 22:28 59.77308 -57.84727 42296 ft 486 kts 154°
2026-04-23 22:28 59.70786 -57.81102 42288 ft 492 kts 173°
2026-04-23 22:29 59.63943 -57.81907 42287 ft 498 kts 192°
2026-04-23 22:29 59.57503 -57.87058 42277 ft 503 kts 207°
2026-04-23 22:30 59.51456 -57.94080 42275 ft 505 kts 210°
2026-04-23 22:30 59.45533 -58.01548 42282 ft 507 kts 215°
2026-04-23 22:31 59.40464 -58.11175 42271 ft 510 kts 232°
2026-04-23 22:31 59.38568 -58.17059 42271 ft 511 kts 243°
2026-04-23 22:31 59.37228 -58.23502 42271 ft 512 kts 253°
2026-04-23 22:32 59.36495 -58.30333 42273 ft 512 kts 264°
2026-04-23 22:32 59.36391 -58.37303 42266 ft 512 kts 275°
2026-04-23 22:32 59.36900 -58.44198 42153 ft 512 kts 285°
2026-04-23 22:32 59.37989 -58.50727 42028 ft 510 kts 295°
2026-04-23 22:33 59.39660 -58.56840 41889 ft 508 kts 306°
2026-04-23 22:33 59.41840 -58.62270 41776 ft 506 kts 316°
2026-04-23 22:33 59.44454 -58.66887 41630 ft 504 kts 326°
2026-04-23 22:33 59.47400 -58.70556 41426 ft 501 kts 335°
2026-04-23 22:34 59.50624 -58.73093 41229 ft 499 kts 346°
2026-04-23 22:34 59.54020 -58.74495 41039 ft 499 kts 355°
2026-04-23 22:34 59.57481 -58.74968 40835 ft 498 kts
2026-04-23 22:34 59.60934 -58.74567 40650 ft 496 kts 11°
2026-04-23 22:35 59.64287 -58.73137 40441 ft 492 kts 21°
2026-04-23 22:35 59.67464 -58.70655 40297 ft 489 kts 28°
2026-04-23 22:35 59.73434 -58.64307 40292 ft 487 kts 33°
2026-04-23 22:36 59.79217 -58.57322 40284 ft 486 kts 37°
2026-04-23 22:36 59.84264 -58.48560 40295 ft 480 kts 52°
2026-04-23 22:37 59.87293 -58.39414 40289 ft 476 kts 67°
2026-04-23 22:37 59.89136 -58.26873 40277 ft 472 kts 85°
2026-04-23 22:38 59.88833 -58.13898 40298 ft 471 kts 103°
2026-04-23 22:38 59.86536 -58.01697 40295 ft 473 kts 118°
2026-04-23 22:39 59.82477 -57.91394 40291 ft 478 kts 136°
2026-04-23 22:39 59.76901 -57.84177 40300 ft 484 kts 155°
2026-04-23 22:40 59.70345 -57.80906 40289 ft 492 kts 173°
2026-04-23 22:40 59.63503 -57.82068 40286 ft 500 kts 192°
2026-04-23 22:41 59.60210 -57.84348 40280 ft 504 kts 202°
2026-04-23 22:41 59.54029 -57.90992 40284 ft 507 kts 209°
2026-04-23 22:42 59.48007 -57.98274 40278 ft 508 kts 209°
2026-04-23 22:42 59.42403 -58.06806 40269 ft 513 kts 224°
2026-04-23 22:43 59.38252 -58.18216 40275 ft 518 kts 244°
2026-04-23 22:43 59.36990 -58.24836 40276 ft 520 kts 255°
2026-04-23 22:43 59.36355 -58.31808 40272 ft 520 kts 265°
2026-04-23 22:43 59.36364 -58.38891 40277 ft 520 kts 276°
2026-04-23 22:44 59.37007 -58.45864 40270 ft 520 kts 287°
2026-04-23 22:44 59.40058 -58.58586 40270 ft 516 kts 308°
2026-04-23 22:45 59.45068 -58.68465 40269 ft 509 kts 328°
2026-04-23 22:45 59.48118 -58.71952 40283 ft 506 kts 339°
2026-04-23 22:45 59.51423 -58.74234 40287 ft 502 kts 349°
2026-04-23 22:46 59.58308 -58.75434 40288 ft 496 kts
2026-04-23 22:46 59.64964 -58.72446 40297 ft 489 kts 25°
2026-04-23 22:47 59.71033 -58.66479 40290 ft 487 kts 32°
2026-04-23 22:47 59.76906 -58.59789 40292 ft 487 kts 33°
2026-04-23 22:48 59.82421 -58.52121 40300 ft 483 kts 45°
2026-04-23 22:48 59.86603 -58.41959 40296 ft 477 kts 62°
2026-04-23 22:49 59.88909 -58.29715 40297 ft 473 kts 81°
2026-04-23 22:49 59.89081 -58.16707 40300 ft 471 kts 99°
2026-04-23 22:50 59.87203 -58.04253 40301 ft 473 kts 115°
2026-04-23 22:50 59.83519 -57.93421 40295 ft 477 kts 132°
2026-04-23 22:51 59.78235 -57.85439 40300 ft 482 kts 150°
2026-04-23 22:51 59.71839 -57.81254 40289 ft 490 kts 169°
2026-04-23 22:52 59.64993 -57.81422 40288 ft 498 kts 188°
2026-04-23 22:52 59.58445 -57.86058 40290 ft 506 kts 205°
2026-04-23 22:53 59.52588 -57.93823 40280 ft 511 kts 220°
2026-04-23 22:53 59.47995 -58.04543 40295 ft 516 kts 234°
2026-04-23 22:54 59.44145 -58.16461 40278 ft 518 kts 237°
2026-04-23 22:54 59.40421 -58.28586 40285 ft 518 kts 237°
2026-04-23 22:55 59.36647 -58.40633 40283 ft 518 kts 237°
2026-04-23 22:55 59.32818 -58.52598 40277 ft 518 kts 236°
2026-04-23 22:56 59.28968 -58.64514 40273 ft 518 kts 236°
2026-04-23 22:56 59.25103 -58.76414 40282 ft 518 kts 236°
2026-04-23 22:57 59.21233 -58.88274 40271 ft 518 kts 236°
2026-04-23 22:57 59.17375 -59.00041 40272 ft 518 kts 236°
2026-04-23 22:58 59.13486 -59.11849 40264 ft 518 kts 236°
2026-04-23 22:58 59.09587 -59.23628 40270 ft 516 kts 235°
2026-04-23 22:59 59.05692 -59.35333 40265 ft 515 kts 235°
2026-04-23 22:59 59.01789 -59.47005 40266 ft 515 kts 235°
2026-04-23 23:00 58.97877 -59.58645 40263 ft 515 kts 235°
2026-04-23 23:00 58.93955 -59.70260 40281 ft 515 kts 235°
2026-04-23 23:01 58.90016 -59.81864 40264 ft 516 kts 234°
2026-04-23 23:01 58.86067 -59.93443 40257 ft 516 kts 234°
2026-04-23 23:02 58.82107 -60.04997 40259 ft 516 kts 234°
2026-04-23 23:02 58.78133 -60.16533 40257 ft 516 kts 234°
2026-04-23 23:03 58.74149 -60.28047 40262 ft 516 kts 234°
2026-04-23 23:03 58.70153 -60.39536 40257 ft 517 kts 234°
2026-04-23 23:04 58.66128 -60.50979 40253 ft 515 kts 231°
2026-04-23 23:04 58.61580 -60.61513 40260 ft 512 kts 227°
2026-04-23 23:05 58.56867 -60.71713 40257 ft 511 kts 225°
2026-04-23 23:05 58.52150 -60.81797 40261 ft 512 kts 225°
2026-04-23 23:06 58.47400 -60.91944 40267 ft 512 kts 225°
2026-04-23 23:06 58.42639 -61.02078 40266 ft 513 kts 225°
2026-04-23 23:07 58.37870 -61.12205 40262 ft 513 kts 225°
2026-04-23 23:07 58.33094 -61.22312 40268 ft 513 kts 225°
2026-04-23 23:08 58.28311 -61.32388 40266 ft 513 kts 225°
2026-04-23 23:08 58.23521 -61.42437 40270 ft 513 kts 225°
2026-04-23 23:09 58.18724 -61.52457 40278 ft 513 kts 225°
2026-04-23 23:09 58.13917 -61.62454 40300 ft 513 kts 224°
2026-04-23 23:10 58.09097 -61.72434 40281 ft 514 kts 224°
2026-04-23 23:10 58.04266 -61.82391 40287 ft 514 kts 224°
2026-04-23 23:11 57.99424 -61.92330 40288 ft 514 kts 224°
2026-04-23 23:11 57.94577 -62.02234 40287 ft 514 kts 224°
2026-04-23 23:12 57.89720 -62.12120 40286 ft 514 kts 224°
2026-04-23 23:12 57.84869 -62.21957 40290 ft 512 kts 224°
2026-04-23 23:13 57.80021 -62.31741 40285 ft 512 kts 224°
2026-04-23 23:13 57.75169 -62.41489 40281 ft 511 kts 224°
2026-04-23 23:14 57.70308 -62.51214 40279 ft 512 kts 224°
2026-04-23 23:14 57.65433 -62.60925 40277 ft 512 kts 224°
2026-04-23 23:15 57.60549 -62.70617 40266 ft 513 kts 224°
2026-04-23 23:15 57.55653 -62.80289 40251 ft 513 kts 224°
2026-04-23 23:16 57.50782 -62.89873 40268 ft 513 kts 224°
2026-04-23 23:16 57.45845 -62.99546 40247 ft 513 kts 224°
2026-04-23 23:17 57.40928 -63.09139 40247 ft 513 kts 224°
2026-04-23 23:17 57.36002 -63.18710 40236 ft 513 kts 224°
2026-04-23 23:18 57.31100 -63.28197 40235 ft 513 kts 223°
2026-04-23 23:18 57.26159 -63.37717 40228 ft 514 kts 224°
2026-04-23 23:19 57.21202 -63.47230 40219 ft 514 kts 224°
2026-04-23 23:19 57.16241 -63.56710 40221 ft 514 kts 223°
2026-04-23 23:20 57.11273 -63.66167 40215 ft 514 kts 223°
2026-04-23 23:20 57.06298 -63.75595 40213 ft 513 kts 224°
2026-04-23 23:21 57.01331 -63.84972 40204 ft 511 kts 224°
2026-04-23 23:21 56.96372 -63.94293 40201 ft 511 kts 224°
2026-04-23 23:22 56.91402 -64.03598 40209 ft 511 kts 223°
2026-04-23 23:22 56.86428 -64.12873 40204 ft 511 kts 223°
2026-04-23 23:23 56.81428 -64.22155 40203 ft 513 kts 223°
2026-04-23 23:23 56.77268 -64.29856 40196 ft 513 kts 223°
2026-04-23 23:24 56.72254 -64.39101 40195 ft 513 kts 223°
2026-04-23 23:24 56.67227 -64.48334 40208 ft 513 kts 223°
2026-04-23 23:25 56.62195 -64.57537 40178 ft 514 kts 223°
2026-04-23 23:25 56.57146 -64.66732 40183 ft 514 kts 223°
2026-04-23 23:26 56.52091 -64.75903 40182 ft 514 kts 223°
2026-04-23 23:26 56.47028 -64.85051 40180 ft 514 kts 223°
2026-04-23 23:27 56.41952 -64.94186 40176 ft 516 kts 223°
2026-04-23 23:27 56.36859 -65.03315 40177 ft 516 kts 223°
2026-04-23 23:28 56.31757 -65.12425 40176 ft 517 kts 223°
2026-04-23 23:28 56.26642 -65.21523 40185 ft 516 kts 223°
2026-04-23 23:29 56.21530 -65.30578 40183 ft 516 kts 223°
2026-04-23 23:29 56.16411 -65.39609 40181 ft 516 kts 223°
2026-04-23 23:30 56.11287 -65.48613 40182 ft 516 kts 223°
2026-04-23 23:30 56.06162 -65.57584 40186 ft 516 kts 223°
2026-04-23 23:31 56.01053 -65.66493 40187 ft 517 kts 223°
2026-04-23 23:31 55.95890 -65.75460 40181 ft 518 kts 223°
2026-04-23 23:32 55.90716 -65.84409 40186 ft 518 kts 222°
2026-04-23 23:32 55.85539 -65.93331 40184 ft 518 kts 222°
2026-04-23 23:33 55.80345 -66.02246 40188 ft 519 kts 222°
2026-04-23 23:33 55.75140 -66.11147 40183 ft 520 kts 222°
2026-04-23 23:34 55.69913 -66.20048 40181 ft 521 kts 222°
2026-04-23 23:34 55.64684 -66.28918 40179 ft 521 kts 222°
2026-04-23 23:35 55.59442 -66.37778 40195 ft 522 kts 221°
2026-04-23 23:35 55.54178 -66.46639 40188 ft 523 kts 221°
2026-04-23 23:36 55.48911 -66.55469 40186 ft 523 kts 221°
2026-04-23 23:36 55.43632 -66.64286 40185 ft 523 kts 221°
2026-04-23 23:37 55.38342 -66.73089 40189 ft 523 kts 221°
2026-04-23 23:37 55.33048 -66.81863 40167 ft 524 kts 221°
2026-04-23 23:38 55.27742 -66.90622 40198 ft 524 kts 221°
2026-04-23 23:38 55.22422 -66.99373 40193 ft 524 kts 221°
2026-04-23 23:39 55.17099 -67.08094 40187 ft 524 kts 221°
2026-04-23 23:39 55.11800 -67.16743 40183 ft 525 kts 221°
2026-04-23 23:40 55.06450 -67.25440 40178 ft 525 kts 221°
2026-04-23 23:40 55.01096 -67.34112 40173 ft 525 kts 221°
2026-04-23 23:41 54.95735 -67.42763 40177 ft 526 kts 220°
2026-04-23 23:41 54.90355 -67.51410 40163 ft 527 kts 220°
2026-04-23 23:42 54.84960 -67.60049 40161 ft 528 kts 220°
2026-04-23 23:42 54.79559 -67.68664 40160 ft 528 kts 220°
2026-04-23 23:43 54.74145 -67.77267 40155 ft 528 kts 220°
2026-04-23 23:43 54.68725 -67.85848 40147 ft 529 kts 220°
2026-04-23 23:44 54.63294 -67.94412 40156 ft 528 kts 220°
2026-04-23 23:44 54.57864 -68.02944 40154 ft 528 kts 220°
2026-04-23 23:45 54.52426 -68.11455 40152 ft 528 kts 220°
2026-04-23 23:45 54.46985 -68.19940 40157 ft 528 kts 220°
2026-04-23 23:46 54.41542 -68.28396 40141 ft 528 kts 220°
2026-04-23 23:46 54.36086 -68.36839 40142 ft 528 kts 220°
2026-04-23 23:47 54.30632 -68.45248 40142 ft 528 kts 220°
2026-04-23 23:47 54.25164 -68.53649 40142 ft 528 kts 220°
2026-04-23 23:48 54.19687 -68.62031 40146 ft 528 kts 220°
2026-04-23 23:48 54.14208 -68.70387 40140 ft 528 kts 220°
2026-04-23 23:49 54.05970 -68.82890 40137 ft 528 kts 220°
2026-04-23 23:49 54.00475 -68.91192 40134 ft 528 kts 220°
2026-04-23 23:50 53.94974 -68.99473 40140 ft 528 kts 220°
2026-04-23 23:50 53.89464 -69.07735 40141 ft 529 kts 220°
2026-04-23 23:51 53.83936 -69.15996 40135 ft 530 kts 219°
2026-04-23 23:51 53.78396 -69.24244 40138 ft 531 kts 219°
2026-04-23 23:52 53.72847 -69.32475 40135 ft 531 kts 219°
2026-04-23 23:52 53.67288 -69.40692 40140 ft 532 kts 219°
2026-04-23 23:53 53.61711 -69.48904 40143 ft 532 kts 219°
2026-04-23 23:53 53.56126 -69.57098 40140 ft 532 kts 219°
2026-04-23 23:54 53.50536 -69.65270 40147 ft 533 kts 219°
2026-04-23 23:54 53.44940 -69.73420 40138 ft 533 kts 219°
2026-04-23 23:55 53.39337 -69.81552 40135 ft 533 kts 219°
2026-04-23 23:55 53.33725 -69.89667 40138 ft 533 kts 219°
2026-04-23 23:56 53.28147 -69.97704 40142 ft 533 kts 219°
2026-04-23 23:56 53.22490 -70.05824 40135 ft 533 kts 219°
2026-04-23 23:57 53.16901 -70.13819 40132 ft 533 kts 219°
2026-04-23 23:57 53.11237 -70.21893 40128 ft 533 kts 219°
2026-04-23 23:58 53.05639 -70.29845 40127 ft 533 kts 219°
2026-04-23 23:58 52.99999 -70.37826 40131 ft 532 kts 219°
2026-04-23 23:59 52.94358 -70.45782 40131 ft 532 kts 219°
2026-04-23 23:59 52.88722 -70.53702 40144 ft 532 kts 219°
2026-04-24 00:00 52.83058 -70.61632 40126 ft 533 kts 219°
2026-04-24 00:00 52.77389 -70.69543 40126 ft 534 kts 219°
2026-04-24 00:01 52.71709 -70.77441 40121 ft 534 kts 219°
2026-04-24 00:01 52.66024 -70.85318 40125 ft 534 kts 219°
2026-04-24 00:02 52.60330 -70.93179 40122 ft 534 kts 219°
2026-04-24 00:02 52.54638 -71.01017 40116 ft 534 kts 219°
2026-04-24 00:03 52.48936 -71.08849 40111 ft 534 kts 219°
2026-04-24 00:03 52.43229 -71.16653 40106 ft 535 kts 219°
2026-04-24 00:04 52.37501 -71.24454 40108 ft 536 kts 219°
2026-04-24 00:04 52.31768 -71.32231 40102 ft 536 kts 219°
2026-04-24 00:05 52.26022 -71.39999 40111 ft 536 kts 219°
2026-04-24 00:05 52.20275 -71.47742 40098 ft 536 kts 219°
2026-04-24 00:06 52.14516 -71.55475 40099 ft 536 kts 219°
2026-04-24 00:06 52.09729 -71.61881 40094 ft 536 kts 219°
2026-04-24 00:07 52.03005 -71.70850 40096 ft 536 kts 219°
2026-04-24 00:07 51.98204 -71.77231 40091 ft 536 kts 219°
2026-04-24 00:08 51.92425 -71.84889 40083 ft 537 kts 219°
2026-04-24 00:08 51.85702 -71.93764 40084 ft 537 kts 219°
2026-04-24 00:09 51.79907 -72.01385 40079 ft 537 kts 219°
2026-04-24 00:09 51.74103 -72.08994 40077 ft 538 kts 219°
2026-04-24 00:10 51.69233 -72.15357 40080 ft 538 kts 218°
2026-04-24 00:10 51.63417 -72.22932 40070 ft 538 kts 219°
2026-04-24 00:11 51.57633 -72.30441 40071 ft 538 kts 219°
2026-04-24 00:11 51.51802 -72.37986 40075 ft 538 kts 218°
2026-04-24 00:12 51.45965 -72.45511 40070 ft 538 kts 218°
2026-04-24 00:12 51.40133 -72.53005 40077 ft 537 kts 219°
2026-04-24 00:13 51.34316 -72.60455 40081 ft 535 kts 219°
2026-04-24 00:13 51.28499 -72.67880 40081 ft 535 kts 219°
2026-04-24 00:14 51.22680 -72.75283 40085 ft 535 kts 219°
2026-04-24 00:14 51.16836 -72.82694 40094 ft 535 kts 219°
2026-04-24 00:15 51.11020 -72.90044 40099 ft 535 kts 219°
2026-04-24 00:15 51.05180 -72.97399 40099 ft 535 kts 219°
2026-04-24 00:16 50.99336 -73.04735 40105 ft 535 kts 219°
2026-04-24 00:16 50.93486 -73.12055 40110 ft 536 kts 219°
2026-04-24 00:17 50.87634 -73.19353 40108 ft 536 kts 219°
2026-04-24 00:17 50.81769 -73.26643 40113 ft 536 kts 219°
2026-04-24 00:18 50.75904 -73.33910 40122 ft 536 kts 219°